Home > Weather > Koror > Past weeks

Flag for Palau Weather for the Past 2 Weeks in Koror, Palau

Now
79 °F

Passing clouds.


Feels Like: 82 °F
Forecast: 78 / 87 °F
Wind: 8 mph from Northeast

Location: Koror / Palau Island

Current Time: Feb 12, 2016 at 5:05:27 AM

Latest Report: Feb 12, 2016 at 3:50 AM


Visibility: 14 mi

Pressure: 29.81 "Hg

Humidity: 89%

Dew point: 75 °F

Location of KororLocation

Historic Weather in Koror — Graph

°F

Koror Temperature Yesterday

Maximum temperature yesterday: 86 °F (at 9:50 AM)
Minimum temperature yesterday: 79 °F (at 12:50 AM)
Average temperature yesterday: 82 °F

High & Low Weather Summary for the Past Weeks

 TemperatureHumidityPressure
High86 °F (Jan 29, 11:50 AM)100% (Jan 28, 7:54 PM)29.94 "Hg (Jan 28, 7:54 PM)
Low73 °F (Feb 7, 12:50 AM)66% (Feb 5, 12:50 PM)29.75 "Hg (Jan 31, 4:54 PM)
Average81 °F83%29.83 "Hg
* Reported Jan 28 3:55 AM — Feb 12 3:50 AM, Koror, Weather by CustomWeather, © 2016

Note: Actual official high and low records may vary slightly from our data, if they occured in-between our weather recording intervals... More about our weather records

Advertising

Koror Weather History for the Previous 24 Hours

 ConditionsComfort  
Time TempWeatherWind HumidityBarometerVisibility
3:50 AM
Fri, Feb 12
79 °FPassing clouds.8 mph89%29.81 "Hg14 mi
2:50 AM79 °FPassing clouds.8 mph89%29.80 "Hg14 mi
1:50 AM79 °FPassing clouds.7 mph89%29.81 "Hg14 mi
12:50 AM79 °FPassing clouds.8 mph89%29.83 "Hg14 mi
11:50 PM
Thu, Feb 11
79 °FPartly cloudy.9 mph89%29.84 "Hg14 mi
10:52 PM79 °FPartly cloudy.10 mph89%29.85 "Hg14 mi
9:50 PM79 °FPartly cloudy.8 mph89%29.85 "Hg14 mi
8:50 PM81 °FPartly cloudy.8 mph84%29.84 "Hg14 mi
7:53 PM81 °FPartly cloudy.7 mph84%29.83 "Hg14 mi
6:55 PM81 °FPartly cloudy.8 mph84%29.82 "Hg15 mi
5:50 PM82 °FBroken clouds.9 mph79%29.80 "Hg15 mi
4:54 PM82 °FBroken clouds.12 mph79%29.78 "Hg15 mi
3:50 PM84 °FBroken clouds.21 mph74%29.77 "Hg15 mi
2:50 PM84 °FBroken clouds.15 mph74%29.77 "Hg15 mi
1:50 PM86 °FBroken clouds.13 mph70%29.78 "Hg15 mi
12:50 PM86 °FBroken clouds.10 mph66%29.82 "Hg15 mi
11:50 AM86 °FBroken clouds.15 mph66%29.84 "Hg15 mi
10:50 AM84 °FBroken clouds.15 mph70%29.86 "Hg15 mi
9:50 AM86 °FBroken clouds.12 mph66%29.87 "Hg15 mi
8:50 AM82 °FBroken clouds.12 mph74%29.87 "Hg15 mi
7:50 AM81 °FBroken clouds.16 mph79%29.85 "Hg15 mi
6:50 AM79 °FBroken clouds.9 mph84%29.84 "Hg15 mi
Weather by CustomWeather, © 2016

See weather overviewHow to use our weather pages